Time,TemperatureF,DewpointF,PressureIn,WindDirection,WindDirectionDegrees,WindSpeedMPH,WindSpeedGustMPH,Humidity,HourlyPrecipIn,Conditions,Clouds,dailyrainin,SoftwareType,DateUTC
2013-01-11 00:01:00,39.2,11.1,29.26,NW,326,13.0,17.0,31,0.00,,---,0.00,VWS V14.01,2013-01-11 08:01:00,
2013-01-11 00:11:00,39.2,9.6,29.26,NW,318,13.0,20.0,29,0.00,,---,0.00,VWS V14.01,2013-01-11 08:11:00,
2013-01-11 00:16:00,39.2,9.6,29.28,NW,325,10.0,16.0,29,0.00,,---,0.00,VWS V14.01,2013-01-11 08:16:00,
2013-01-11 00:21:00,39.1,9.5,29.28,NNW,328,12.0,17.0,29,0.00,,---,0.00,VWS V14.01,2013-01-11 08:21:00,
2013-01-11 00:31:00,38.8,9.3,29.28,NW,312,6.0,14.0,29,0.00,,---,0.00,VWS V14.01,2013-01-11 08:31:00,
2013-01-11 00:36:00,38.8,9.3,29.28,NW,316,12.0,17.0,29,0.00,,---,0.00,VWS V14.01,2013-01-11 08:36:00,
2013-01-11 00:46:00,38.6,8.3,29.29,NNW,330,11.0,17.0,28,0.00,,---,0.00,VWS V14.01,2013-01-11 08:46:00,
2013-01-11 00:56:00,38.5,8.2,29.29,NNW,333,14.0,18.0,28,0.00,,---,0.00,VWS V14.01,2013-01-11 08:56:00,
2013-01-11 01:06:00,38.5,8.2,29.30,NNW,333,15.0,17.0,28,0.00,,---,0.00,VWS V14.01,2013-01-11 09:06:00,
2013-01-11 01:16:00,38.5,8.2,29.30,NW,311,13.0,16.0,28,0.00,,---,0.00,VWS V14.01,2013-01-11 09:16:00,
2013-01-11 01:21:00,38.2,8.0,29.30,NW,308,10.0,14.0,28,0.00,,---,0.00,VWS V14.01,2013-01-11 09:21:00,
2013-01-11 01:26:00,37.9,7.7,29.30,NNW,330,11.0,14.0,28,0.00,,---,0.00,VWS V14.01,2013-01-11 09:26:00,
2013-01-11 01:36:00,37.8,7.6,29.31,NNW,328,10.0,13.0,28,0.00,,---,0.00,VWS V14.01,2013-01-11 09:36:00,
2013-01-11 01:41:00,37.8,7.6,29.31,NW,315,12.0,14.0,28,0.00,,---,0.00,VWS V14.01,2013-01-11 09:41:00,
2013-01-11 01:51:00,37.9,6.9,29.31,NW,322,10.0,18.0,27,0.00,,---,0.00,VWS V14.01,2013-01-11 09:51:00,
2013-01-11 01:56:00,37.9,6.9,29.31,NNW,329,13.0,16.0,27,0.00,,---,0.00,VWS V14.01,2013-01-11 09:56:00,
2013-01-11 02:06:00,37.5,7.4,29.31,NW,326,8.0,12.0,28,0.00,,---,0.00,VWS V14.01,2013-01-11 10:06:00,
2013-01-11 02:11:00,37.3,7.2,29.31,NW,326,13.0,13.0,28,0.00,,---,0.00,VWS V14.01,2013-01-11 10:11:00,
2013-01-11 02:16:00,37.3,7.2,29.33,NW,318,10.0,13.0,28,0.00,,---,0.00,VWS V14.01,2013-01-11 10:16:00,
2013-01-11 02:21:00,37.5,7.4,29.33,NNW,330,7.0,16.0,28,0.00,,---,0.00,VWS V14.01,2013-01-11 10:21:00,
2013-01-11 02:31:00,37.3,7.2,29.33,NW,313,14.0,14.0,28,0.00,,---,0.00,VWS V14.01,2013-01-11 10:31:00,
2013-01-11 02:36:00,37.2,7.1,29.33,NW,318,9.0,14.0,28,0.00,,---,0.00,VWS V14.01,2013-01-11 10:36:00,
2013-01-11 02:41:00,37.0,6.9,29.33,NNW,329,9.0,13.0,28,0.00,,---,0.00,VWS V14.01,2013-01-11 10:41:00,
2013-01-11 02:46:00,37.0,6.9,29.34,NW,318,11.0,13.0,28,0.00,,---,0.00,VWS V14.01,2013-01-11 10:46:00,
2013-01-11 02:51:00,36.9,6.8,29.34,NNW,328,8.0,11.0,28,0.00,,---,0.00,VWS V14.01,2013-01-11 10:51:00,
2013-01-11 02:56:00,36.9,6.8,29.34,NW,311,5.0,12.0,28,0.00,,---,0.00,VWS V14.01,2013-01-11 10:56:00,
2013-01-11 03:06:00,37.0,6.9,29.34,NW,326,10.0,12.0,28,0.00,,---,0.00,VWS V14.01,2013-01-11 11:06:00,
2013-01-11 03:11:00,37.0,6.9,29.34,NW,312,10.0,13.0,28,0.00,,---,0.00,VWS V14.01,2013-01-11 11:11:00,
2013-01-11 03:16:00,37.0,6.9,29.34,NW,315,13.0,17.0,28,0.00,,---,0.00,VWS V14.01,2013-01-11 11:16:00,
2013-01-11 03:26:00,36.9,7.6,29.34,NW,316,10.0,12.0,29,0.00,,---,0.00,VWS V14.01,2013-01-11 11:26:00,
2013-01-11 03:31:00,36.9,7.6,29.33,NNW,328,13.0,16.0,29,0.00,,---,0.00,VWS V14.01,2013-01-11 11:31:00,
2013-01-11 03:36:00,37.2,7.1,29.33,NNW,342,13.0,18.0,28,0.00,,---,0.00,VWS V14.01,2013-01-11 11:36:00,
2013-01-11 03:46:00,37.3,7.2,29.33,NW,313,12.0,19.0,28,0.00,,---,0.00,VWS V14.01,2013-01-11 11:46:00,
2013-01-11 03:51:00,37.3,7.2,29.33,NW,323,14.0,18.0,28,0.00,,---,0.00,VWS V14.01,2013-01-11 11:51:00,
2013-01-11 04:01:00,37.5,7.4,29.33,NW,319,13.0,16.0,28,0.00,,---,0.00,VWS V14.01,2013-01-11 12:01:00,
2013-01-11 04:06:00,37.5,8.1,29.33,NW,322,16.0,16.0,29,0.00,,---,0.00,VWS V14.01,2013-01-11 12:06:00,
2013-01-11 04:16:00,37.6,8.2,29.34,WNW,302,17.0,19.0,29,0.00,,---,0.00,VWS V14.01,2013-01-11 12:16:00,
2013-01-11 04:26:00,37.6,8.2,29.34,NW,315,12.0,17.0,29,0.00,,---,0.00,VWS V14.01,2013-01-11 12:26:00,
2013-01-11 04:31:00,37.5,8.1,29.34,NNW,340,16.0,18.0,29,0.00,,---,0.00,VWS V14.01,2013-01-11 12:31:00,
2013-01-11 04:36:00,37.5,8.1,29.34,NNW,328,14.0,20.0,29,0.00,,---,0.00,VWS V14.01,2013-01-11 12:36:00,
2013-01-11 04:41:00,37.5,8.1,29.34,NW,312,14.0,18.0,29,0.00,,---,0.00,VWS V14.01,2013-01-11 12:41:00,
2013-01-11 04:51:00,37.3,8.7,29.35,NW,316,14.0,14.0,30,0.00,,---,0.00,VWS V14.01,2013-01-11 12:51:00,
2013-01-11 04:56:00,37.2,8.6,29.35,NW,304,9.0,14.0,30,0.00,,---,0.00,VWS V14.01,2013-01-11 12:56:00,
2013-01-11 05:01:00,37.2,8.6,29.36,NNW,335,10.0,12.0,30,0.00,,---,0.00,VWS V14.01,2013-01-11 13:01:00,
2013-01-11 05:06:00,37.2,8.6,29.36,NNW,330,12.0,13.0,30,0.00,,---,0.00,VWS V14.01,2013-01-11 13:06:00,
2013-01-11 05:11:00,37.2,8.6,29.36,WNW,292,16.0,16.0,30,0.00,,---,0.00,VWS V14.01,2013-01-11 13:11:00,
2013-01-11 05:21:00,37.0,9.2,29.36,NW,315,7.0,8.0,31,0.00,,---,0.00,VWS V14.01,2013-01-11 13:21:00,
2013-01-11 05:26:00,36.8,9.0,29.36,NNW,336,8.0,10.0,31,0.00,,---,0.00,VWS V14.01,2013-01-11 13:26:00,
2013-01-11 05:31:00,36.8,9.0,29.37,NW,325,6.0,11.0,31,0.00,,---,0.00,VWS V14.01,2013-01-11 13:31:00,
2013-01-11 05:36:00,36.5,8.8,29.37,NNW,329,6.0,7.0,31,0.00,,---,0.00,VWS V14.01,2013-01-11 13:36:00,
2013-01-11 05:41:00,36.2,8.5,29.37,NW,325,6.0,7.0,31,0.00,,---,0.00,VWS V14.01,2013-01-11 13:41:00,
2013-01-11 05:46:00,35.9,9.6,29.38,NNW,337,7.0,7.0,33,0.00,,---,0.00,VWS V14.01,2013-01-11 13:46:00,
2013-01-11 05:56:00,35.8,10.2,29.38,NNW,335,5.0,8.0,34,0.00,,---,0.00,VWS V14.01,2013-01-11 13:56:00,
2013-01-11 06:01:00,35.6,10.0,29.39,North,354,2.0,6.0,34,0.00,,---,0.00,VWS V14.01,2013-01-11 14:01:00,
2013-01-11 06:06:00,35.5,9.9,29.39,North,0,2.0,3.0,34,0.00,,---,0.00,VWS V14.01,2013-01-11 14:06:00,
2013-01-11 06:16:00,35.8,10.8,29.40,NNE,14,0.0,5.0,35,0.00,,---,0.00,VWS V14.01,2013-01-11 14:16:00,
2013-01-11 06:21:00,35.8,10.2,29.40,North,1,3.0,6.0,34,0.00,,---,0.00,VWS V14.01,2013-01-11 14:21:00,
2013-01-11 06:26:00,35.9,10.3,29.40,North,0,0.0,5.0,34,0.00,,---,0.00,VWS V14.01,2013-01-11 14:26:00,
2013-01-11 06:31:00,35.8,10.2,29.41,North,0,2.0,4.0,34,0.00,,---,0.00,VWS V14.01,2013-01-11 14:31:00,
2013-01-11 06:41:00,35.6,10.0,29.41,North,353,0.0,5.0,34,0.00,,---,0.00,VWS V14.01,2013-01-11 14:41:00,
2013-01-11 06:51:00,34.7,11.1,29.42,NW,326,2.0,2.0,37,0.00,,---,0.00,VWS V14.01,2013-01-11 14:51:00,
2013-01-11 06:56:00,34.6,11.0,29.42,WNW,288,2.0,3.0,37,0.00,,---,0.00,VWS V14.01,2013-01-11 14:56:00,
2013-01-11 07:01:00,34.3,10.8,29.42,WNW,292,1.0,3.0,37,0.00,,---,0.00,VWS V14.01,2013-01-11 15:01:00,
2013-01-11 07:06:00,34.1,11.2,29.42,NW,326,5.0,5.0,38,0.00,,---,0.00,VWS V14.01,2013-01-11 15:06:00,
2013-01-11 07:11:00,34.1,11.2,29.42,NW,322,3.0,5.0,38,0.00,,---,0.00,VWS V14.01,2013-01-11 15:11:00,
2013-01-11 07:21:00,34.0,10.5,29.43,NNW,330,6.0,6.0,37,0.00,,---,0.00,VWS V14.01,2013-01-11 15:21:00,
2013-01-11 07:26:00,34.6,11.0,29.43,NW,326,4.0,7.0,37,0.00,,---,0.00,VWS V14.01,2013-01-11 15:26:00,
2013-01-11 07:36:00,35.9,11.6,29.43,WNW,299,9.0,10.0,36,0.00,,---,0.00,VWS V14.01,2013-01-11 15:36:00,
2013-01-11 07:46:00,36.6,11.6,29.43,NW,325,7.0,11.0,35,0.00,,---,0.00,VWS V14.01,2013-01-11 15:46:00,
2013-01-11 07:51:00,36.9,11.8,29.43,NNW,336,6.0,10.0,35,0.00,,---,0.00,VWS V14.01,2013-01-11 15:51:00,
2013-01-11 08:01:00,37.6,11.8,29.43,NW,318,7.0,11.0,34,0.00,,---,0.00,VWS V14.01,2013-01-11 16:01:00,
2013-01-11 08:06:00,38.0,11.5,29.43,NW,316,7.0,14.0,33,0.00,,---,0.00,VWS V14.01,2013-01-11 16:06:00,
2013-01-11 08:11:00,38.3,11.7,29.43,NNW,339,7.0,14.0,33,0.00,,---,0.00,VWS V14.01,2013-01-11 16:11:00,
2013-01-11 08:16:00,38.6,11.3,29.44,North,353,14.0,20.0,32,0.00,,---,0.00,VWS V14.01,2013-01-11 16:16:00,
2013-01-11 08:21:00,38.9,11.6,29.44,NW,319,14.0,18.0,32,0.00,,---,0.00,VWS V14.01,2013-01-11 16:21:00,
2013-01-11 08:26:00,39.3,11.2,29.44,NNW,328,17.0,18.0,31,0.00,,---,0.00,VWS V14.01,2013-01-11 16:26:00,
2013-01-11 08:36:00,39.5,10.6,29.44,WNW,301,13.0,16.0,30,0.00,,---,0.00,VWS V14.01,2013-01-11 16:36:00,
2013-01-11 08:41:00,39.9,10.2,29.44,NW,319,8.0,21.0,29,0.00,,---,0.00,VWS V14.01,2013-01-11 16:41:00,
2013-01-11 08:51:00,40.3,9.8,29.44,NW,313,17.0,19.0,28,0.00,,---,0.00,VWS V14.01,2013-01-11 16:51:00,
2013-01-11 08:56:00,40.5,10.0,29.44,NW,306,18.0,21.0,28,0.00,,---,0.00,VWS V14.01,2013-01-11 16:56:00,
2013-01-11 09:06:00,40.6,10.1,29.43,WNW,291,12.0,26.0,28,0.00,,---,0.00,VWS V14.01,2013-01-11 17:06:00,
2013-01-11 09:11:00,40.8,10.2,29.43,NW,325,17.0,24.0,28,0.00,,---,0.00,VWS V14.01,2013-01-11 17:11:00,
2013-01-11 09:21:00,41.1,8.8,29.42,NW,306,17.0,22.0,26,0.00,,---,0.00,VWS V14.01,2013-01-11 17:21:00,
2013-01-11 09:26:00,41.1,8.8,29.42,NNW,328,16.0,24.0,26,0.00,,---,0.00,VWS V14.01,2013-01-11 17:26:00,
2013-01-11 09:31:00,41.1,9.7,29.43,NNW,329,11.0,22.0,27,0.00,,---,0.00,VWS V14.01,2013-01-11 17:31:00,
2013-01-11 09:41:00,41.6,8.4,29.43,NW,316,12.0,19.0,25,0.00,,---,0.00,VWS V14.01,2013-01-11 17:41:00,
2013-01-11 09:46:00,41.6,8.4,29.43,NNW,335,16.0,25.0,25,0.00,,---,0.00,VWS V14.01,2013-01-11 17:46:00,
2013-01-11 09:51:00,41.6,8.4,29.43,NW,306,18.0,22.0,25,0.00,,---,0.00,VWS V14.01,2013-01-11 17:51:00,
2013-01-11 09:56:00,41.8,7.7,29.43,NW,306,18.0,26.0,24,0.00,,---,0.00,VWS V14.01,2013-01-11 17:56:00,
2013-01-11 10:06:00,41.9,7.8,29.43,NNW,339,17.0,26.0,24,0.00,,---,0.00,VWS V14.01,2013-01-11 18:06:00,
2013-01-11 10:11:00,42.2,8.0,29.43,NW,316,18.0,26.0,24,0.00,,---,0.00,VWS V14.01,2013-01-11 18:11:00,
2013-01-11 10:21:00,42.3,8.1,29.43,NW,318,13.0,22.0,24,0.00,,---,0.00,VWS V14.01,2013-01-11 18:21:00,
2013-01-11 10:31:00,42.3,6.2,29.43,NW,325,17.0,22.0,22,0.00,,---,0.00,VWS V14.01,2013-01-11 18:31:00,
2013-01-11 10:36:00,42.6,6.4,29.43,WNW,294,14.0,24.0,22,0.00,,---,0.00,VWS V14.01,2013-01-11 18:36:00,
2013-01-11 10:41:00,42.8,5.6,29.43,NW,311,17.0,20.0,21,0.00,,---,0.00,VWS V14.01,2013-01-11 18:41:00,
2013-01-11 10:46:00,42.8,6.6,29.43,NNW,333,13.0,20.0,22,0.00,,---,0.00,VWS V14.01,2013-01-11 18:46:00,
2013-01-11 10:56:00,43.2,6.9,29.43,NW,315,11.0,21.0,22,0.00,,---,0.00,VWS V14.01,2013-01-11 18:56:00,
2013-01-11 11:01:00,43.3,7.0,29.42,NW,306,11.0,18.0,22,0.00,,---,0.00,VWS V14.01,2013-01-11 19:01:00,
2013-01-11 11:06:00,43.3,6.0,29.42,NW,315,13.0,24.0,21,0.00,,---,0.00,VWS V14.01,2013-01-11 19:06:00,
2013-01-11 11:11:00,43.9,6.5,29.42,NW,318,14.0,18.0,21,0.00,,---,0.00,VWS V14.01,2013-01-11 19:11:00,
2013-01-11 11:16:00,43.9,4.3,29.42,NNW,333,10.0,22.0,19,0.00,,---,0.00,VWS V14.01,2013-01-11 19:16:00,
2013-01-11 11:21:00,43.9,5.4,29.42,WNW,291,18.0,19.0,20,0.00,,---,0.00,VWS V14.01,2013-01-11 19:21:00,
2013-01-11 11:31:00,44.1,5.6,29.41,NW,320,7.0,20.0,20,0.00,,---,0.00,VWS V14.01,2013-01-11 19:31:00,
2013-01-11 11:36:00,44.1,5.6,29.41,West,280,10.0,24.0,20,0.00,,---,0.00,VWS V14.01,2013-01-11 19:36:00,
2013-01-11 11:46:00,44.3,4.7,29.40,NW,304,7.0,21.0,19,0.00,,---,0.00,VWS V14.01,2013-01-11 19:46:00,
2013-01-11 11:51:00,44.1,4.5,29.40,NNW,332,22.0,22.0,19,0.00,,---,0.00,VWS V14.01,2013-01-11 19:51:00,
2013-01-11 11:56:00,44.5,4.8,29.40,NW,320,12.0,22.0,19,0.00,,---,0.00,VWS V14.01,2013-01-11 19:56:00,
2013-01-11 12:01:00,44.9,5.2,29.39,NW,319,10.0,20.0,19,0.00,,---,0.00,VWS V14.01,2013-01-11 20:01:00,
2013-01-11 12:11:00,44.9,5.2,29.39,WNW,294,17.0,24.0,19,0.00,,---,0.00,VWS V14.01,2013-01-11 20:11:00,
2013-01-11 12:16:00,45.1,5.3,29.39,NW,315,13.0,20.0,19,0.00,,---,0.00,VWS V14.01,2013-01-11 20:16:00,
2013-01-11 12:26:00,44.3,4.7,29.39,West,280,16.0,20.0,19,0.00,,---,0.00,VWS V14.01,2013-01-11 20:26:00,
2013-01-11 12:31:00,44.1,4.5,29.39,West,277,18.0,18.0,19,0.00,,---,0.00,VWS V14.01,2013-01-11 20:31:00,
2013-01-11 12:36:00,44.2,5.7,29.39,WNW,296,11.0,22.0,20,0.00,,---,0.00,VWS V14.01,2013-01-11 20:36:00,
2013-01-11 12:41:00,44.5,5.9,29.39,NW,308,15.0,17.0,20,0.00,,---,0.00,VWS V14.01,2013-01-11 20:41:00,
2013-01-11 12:51:00,44.3,5.8,29.38,NNW,330,10.0,19.0,20,0.00,,---,0.00,VWS V14.01,2013-01-11 20:51:00,
2013-01-11 12:56:00,44.9,5.2,29.38,NNW,339,15.0,19.0,19,0.00,,---,0.00,VWS V14.01,2013-01-11 20:56:00,
2013-01-11 13:06:00,45.5,5.7,29.37,North,350,14.0,17.0,19,0.00,,---,0.00,VWS V14.01,2013-01-11 21:06:00,
2013-01-11 13:11:00,45.2,5.4,29.37,NW,312,6.0,14.0,19,0.00,,---,0.00,VWS V14.01,2013-01-11 21:11:00,
2013-01-11 13:16:00,45.4,5.6,29.38,North,3,10.0,13.0,19,0.00,,---,0.00,VWS V14.01,2013-01-11 21:16:00,
2013-01-11 13:21:00,45.4,5.6,29.38,NNW,339,11.0,12.0,19,0.00,,---,0.00,VWS V14.01,2013-01-11 21:21:00,
2013-01-11 13:26:00,44.5,4.8,29.38,WNW,301,10.0,13.0,19,0.00,,---,0.00,VWS V14.01,2013-01-11 21:26:00,
2013-01-11 13:36:00,44.5,4.8,29.38,NW,311,13.0,20.0,19,0.00,,---,0.00,VWS V14.01,2013-01-11 21:36:00,
2013-01-11 13:46:00,44.2,8.8,29.38,NW,306,10.0,17.0,23,0.00,,---,0.00,VWS V14.01,2013-01-11 21:46:00,
2013-01-11 13:51:00,44.6,9.1,29.38,NNW,332,5.0,12.0,23,0.00,,---,0.00,VWS V14.01,2013-01-11 21:51:00,
2013-01-11 13:56:00,45.2,9.6,29.38,NNW,340,10.0,11.0,23,0.00,,---,0.00,VWS V14.01,2013-01-11 21:56:00,
2013-01-11 14:01:00,45.4,9.8,29.38,West,261,9.0,12.0,23,0.00,,---,0.00,VWS V14.01,2013-01-11 22:01:00,
2013-01-11 14:06:00,45.8,10.1,29.38,NW,313,9.0,13.0,23,0.00,,---,0.00,VWS V14.01,2013-01-11 22:06:00,
2013-01-11 14:16:00,45.5,7.8,29.37,WNW,298,6.0,14.0,21,0.00,,---,0.00,VWS V14.01,2013-01-11 22:16:00,
2013-01-11 14:21:00,45.5,7.8,29.37,NW,311,11.0,11.0,21,0.00,,---,0.00,VWS V14.01,2013-01-11 22:21:00,
2013-01-11 14:26:00,45.5,7.8,29.37,WNW,302,11.0,11.0,21,0.00,,---,0.00,VWS V14.01,2013-01-11 22:26:00,
2013-01-11 14:31:00,45.2,8.6,29.37,NW,323,10.0,13.0,22,0.00,,---,0.00,VWS V14.01,2013-01-11 22:31:00,
2013-01-11 14:41:00,45.2,8.6,29.37,NNW,343,11.0,16.0,22,0.00,,---,0.00,VWS V14.01,2013-01-11 22:41:00,
2013-01-11 14:46:00,45.1,8.5,29.38,NW,318,7.0,16.0,22,0.00,,---,0.00,VWS V14.01,2013-01-11 22:46:00,
2013-01-11 14:56:00,45.2,8.6,29.38,NNW,333,6.0,6.0,22,0.00,,---,0.00,VWS V14.01,2013-01-11 22:56:00,
2013-01-11 15:01:00,45.2,8.6,29.38,WNW,298,6.0,11.0,22,0.00,,---,0.00,VWS V14.01,2013-01-11 23:01:00,
2013-01-11 15:11:00,44.3,8.9,29.38,NW,313,6.0,10.0,23,0.00,,---,0.00,VWS V14.01,2013-01-11 23:11:00,
2013-01-11 15:16:00,44.3,8.9,29.38,WNW,298,2.0,9.0,23,0.00,,---,0.00,VWS V14.01,2013-01-11 23:16:00,
2013-01-11 15:21:00,44.3,7.9,29.38,NW,306,6.0,10.0,22,0.00,,---,0.00,VWS V14.01,2013-01-11 23:21:00,
2013-01-11 15:26:00,44.6,8.1,29.38,WSW,253,3.0,6.0,22,0.00,,---,0.00,VWS V14.01,2013-01-11 23:26:00,
2013-01-11 15:31:00,45.1,8.5,29.38,WNW,301,4.0,6.0,22,0.00,,---,0.00,VWS V14.01,2013-01-11 23:31:00,
2013-01-11 15:36:00,44.9,8.4,29.38,WSW,257,9.0,9.0,22,0.00,,---,0.00,VWS V14.01,2013-01-11 23:36:00,
2013-01-11 15:41:00,44.5,8.0,29.38,WSW,253,4.0,9.0,22,0.00,,---,0.00,VWS V14.01,2013-01-11 23:41:00,
2013-01-11 15:46:00,44.1,8.7,29.38,West,267,2.0,7.0,23,0.00,,---,0.00,VWS V14.01,2013-01-11 23:46:00,
2013-01-11 15:51:00,43.9,9.5,29.38,West,280,3.0,7.0,24,0.00,,---,0.00,VWS V14.01,2013-01-11 23:51:00,
2013-01-11 16:01:00,43.9,8.5,29.38,WNW,301,5.0,7.0,23,0.00,,---,0.00,VWS V14.01,2013-01-12 00:01:00,
2013-01-11 16:06:00,43.9,8.5,29.38,WNW,299,5.0,7.0,23,0.00,,---,0.00,VWS V14.01,2013-01-12 00:06:00,
2013-01-11 16:16:00,44.1,9.6,29.38,WNW,294,4.0,7.0,24,0.00,,---,0.00,VWS V14.01,2013-01-12 00:16:00,
2013-01-11 16:26:00,42.9,13.6,29.38,NNW,336,12.0,16.0,30,0.00,,---,0.00,VWS V14.01,2013-01-12 00:26:00,
2013-01-11 16:31:00,42.6,13.4,29.39,North,353,8.0,17.0,30,0.00,,---,0.00,VWS V14.01,2013-01-12 00:31:00,
2013-01-11 16:41:00,41.9,15.6,29.39,NNW,339,8.0,18.0,34,0.00,,---,0.00,VWS V14.01,2013-01-12 00:41:00,
2013-01-11 16:51:00,41.5,15.9,29.39,NNW,337,9.0,14.0,35,0.00,,---,0.00,VWS V14.01,2013-01-12 00:51:00,
2013-01-11 17:01:00,41.3,15.1,29.40,NW,316,10.0,14.0,34,0.00,,---,0.00,VWS V14.01,2013-01-12 01:01:00,
2013-01-11 17:06:00,41.3,14.4,29.40,NW,308,8.0,15.0,33,0.00,,---,0.00,VWS V14.01,2013-01-12 01:06:00,
2013-01-11 17:16:00,41.2,14.3,29.40,NW,312,10.0,16.0,33,0.00,,---,0.00,VWS V14.01,2013-01-12 01:16:00,
2013-01-11 17:26:00,41.1,14.9,29.40,NW,309,5.0,10.0,34,0.00,,---,0.00,VWS V14.01,2013-01-12 01:26:00,
2013-01-11 17:31:00,40.8,14.6,29.41,NW,308,6.0,11.0,34,0.00,,---,0.00,VWS V14.01,2013-01-12 01:31:00,
2013-01-11 17:36:00,40.6,15.1,29.41,NW,313,6.0,12.0,35,0.00,,---,0.00,VWS V14.01,2013-01-12 01:36:00,
2013-01-11 17:41:00,40.5,15.7,29.41,NW,319,10.0,17.0,36,0.00,,---,0.00,VWS V14.01,2013-01-12 01:41:00,
2013-01-11 17:46:00,40.3,16.1,29.40,NNW,333,10.0,14.0,37,0.00,,---,0.00,VWS V14.01,2013-01-12 01:46:00,
2013-01-11 17:56:00,40.1,16.5,29.40,NNW,332,8.0,17.0,38,0.00,,---,0.00,VWS V14.01,2013-01-12 01:56:00,
2013-01-11 18:06:00,39.9,17.5,29.41,WNW,289,6.0,11.0,40,0.00,,---,0.00,VWS V14.01,2013-01-12 02:06:00,
2013-01-11 18:16:00,39.8,17.5,29.41,NNW,328,11.0,12.0,40,0.00,,---,0.00,VWS V14.01,2013-01-12 02:16:00,
2013-01-11 18:21:00,39.9,17.0,29.41,NW,322,6.0,12.0,39,0.00,,---,0.00,VWS V14.01,2013-01-12 02:21:00,
2013-01-11 18:31:00,39.9,17.0,29.42,NW,326,5.0,9.0,39,0.00,,---,0.00,VWS V14.01,2013-01-12 02:31:00,
2013-01-11 18:36:00,39.9,17.5,29.42,NW,319,5.0,8.0,40,0.00,,---,0.00,VWS V14.01,2013-01-12 02:36:00,
2013-01-11 18:46:00,39.9,17.0,29.41,WNW,291,3.0,6.0,39,0.00,,---,0.00,VWS V14.01,2013-01-12 02:46:00,
2013-01-11 18:51:00,39.8,16.9,29.41,WNW,288,5.0,6.0,39,0.00,,---,0.00,VWS V14.01,2013-01-12 02:51:00,
2013-01-11 19:01:00,39.6,16.7,29.41,WNW,299,3.0,6.0,39,0.00,,---,0.00,VWS V14.01,2013-01-12 03:01:00,
2013-01-11 19:06:00,39.6,16.7,29.41,WNW,302,4.0,6.0,39,0.00,,---,0.00,VWS V14.01,2013-01-12 03:06:00,
2013-01-11 19:16:00,39.3,16.4,29.41,NW,316,3.0,6.0,39,0.00,,---,0.00,VWS V14.01,2013-01-12 03:16:00,
2013-01-11 19:21:00,39.3,17.0,29.41,NW,304,3.0,7.0,40,0.00,,---,0.00,VWS V14.01,2013-01-12 03:21:00,
2013-01-11 19:31:00,39.3,16.4,29.41,NW,319,4.0,6.0,39,0.00,,---,0.00,VWS V14.01,2013-01-12 03:31:00,
2013-01-11 19:36:00,39.2,16.3,29.41,NNW,344,6.0,6.0,39,0.00,,---,0.00,VWS V14.01,2013-01-12 03:36:00,
2013-01-11 19:41:00,39.1,16.2,29.41,NNW,339,2.0,6.0,39,0.00,,---,0.00,VWS V14.01,2013-01-12 03:41:00,
2013-01-11 19:46:00,38.9,16.1,29.41,NNW,336,2.0,5.0,39,0.00,,---,0.00,VWS V14.01,2013-01-12 03:46:00,
2013-01-11 19:56:00,38.8,16.6,29.41,NNW,336,0.0,1.0,40,0.00,,---,0.00,VWS V14.01,2013-01-12 03:56:00,
2013-01-11 20:01:00,38.8,17.1,29.42,NNW,336,0.0,0.0,41,0.00,,---,0.00,VWS V14.01,2013-01-12 04:01:00,
2013-01-11 20:06:00,38.6,17.0,29.42,NNW,336,0.0,0.0,41,0.00,,---,0.00,VWS V14.01,2013-01-12 04:06:00,
2013-01-11 20:11:00,38.3,16.7,29.42,NNW,336,0.0,0.0,41,0.00,,---,0.00,VWS V14.01,2013-01-12 04:11:00,
2013-01-11 20:21:00,38.2,16.0,29.41,WSW,248,0.0,6.0,40,0.00,,---,0.00,VWS V14.01,2013-01-12 04:21:00,
2013-01-11 20:26:00,38.0,15.8,29.41,West,264,2.0,6.0,40,0.00,,---,0.00,VWS V14.01,2013-01-12 04:26:00,
2013-01-11 20:31:00,37.9,15.8,29.41,WNW,287,1.0,5.0,40,0.00,,---,0.00,VWS V14.01,2013-01-12 04:31:00,
2013-01-11 20:36:00,37.9,14.6,29.41,WNW,294,6.0,6.0,38,0.00,,---,0.00,VWS V14.01,2013-01-12 04:36:00,
2013-01-11 20:46:00,38.2,13.0,29.41,WNW,298,5.0,7.0,35,0.00,,---,0.00,VWS V14.01,2013-01-12 04:46:00,
2013-01-11 20:51:00,38.0,11.5,29.41,WNW,289,3.0,7.0,33,0.00,,---,0.00,VWS V14.01,2013-01-12 04:51:00,
2013-01-11 20:56:00,38.0,10.8,29.41,NW,304,3.0,6.0,32,0.00,,---,0.00,VWS V14.01,2013-01-12 04:56:00,
2013-01-11 21:01:00,38.2,9.5,29.41,NW,313,4.0,7.0,30,0.00,,---,0.00,VWS V14.01,2013-01-12 05:01:00,
2013-01-11 21:06:00,38.2,8.8,29.41,NW,326,6.0,7.0,29,0.00,,---,0.00,VWS V14.01,2013-01-12 05:06:00,
2013-01-11 21:11:00,38.0,8.6,29.41,NNW,344,6.0,7.0,29,0.00,,---,0.00,VWS V14.01,2013-01-12 05:11:00,
2013-01-11 21:16:00,37.6,9.7,29.41,NNW,339,5.0,6.0,31,0.00,,---,0.00,VWS V14.01,2013-01-12 05:16:00,
2013-01-11 21:21:00,37.5,8.1,29.41,NW,323,4.0,7.0,29,0.00,,---,0.00,VWS V14.01,2013-01-12 05:21:00,
2013-01-11 21:26:00,37.3,8.0,29.41,NW,319,5.0,6.0,29,0.00,,---,0.00,VWS V14.01,2013-01-12 05:26:00,
2013-01-11 21:31:00,37.3,8.0,29.41,NNW,328,3.0,6.0,29,0.00,,---,0.00,VWS V14.01,2013-01-12 05:31:00,
2013-01-11 21:36:00,37.2,7.9,29.41,NW,323,6.0,7.0,29,0.00,,---,0.00,VWS V14.01,2013-01-12 05:36:00,
2013-01-11 21:46:00,37.0,6.9,29.41,NW,320,5.0,7.0,28,0.00,,---,0.00,VWS V14.01,2013-01-12 05:46:00,
2013-01-11 21:51:00,36.9,6.8,29.41,NW,323,6.0,9.0,28,0.00,,---,0.00,VWS V14.01,2013-01-12 05:51:00,
2013-01-11 22:01:00,36.5,7.3,29.42,NW,326,6.0,7.0,29,0.00,,---,0.00,VWS V14.01,2013-01-12 06:01:00,
2013-01-11 22:06:00,36.5,7.3,29.42,NW,319,7.0,7.0,29,0.00,,---,0.00,VWS V14.01,2013-01-12 06:06:00,
2013-01-11 22:16:00,36.5,7.3,29.41,WNW,298,4.0,8.0,29,0.00,,---,0.00,VWS V14.01,2013-01-12 06:16:00,
2013-01-11 22:21:00,36.6,6.6,29.41,NW,304,9.0,10.0,28,0.00,,---,0.00,VWS V14.01,2013-01-12 06:21:00,
2013-01-11 22:31:00,37.0,6.9,29.41,NW,309,9.0,11.0,28,0.00,,---,0.00,VWS V14.01,2013-01-12 06:31:00,
2013-01-11 22:41:00,37.6,7.5,29.41,NW,319,11.0,15.0,28,0.00,,---,0.00,VWS V14.01,2013-01-12 06:41:00,
2013-01-11 22:46:00,37.6,7.5,29.41,NW,315,8.0,12.0,28,0.00,,---,0.00,VWS V14.01,2013-01-12 06:46:00,
2013-01-11 22:56:00,37.8,7.6,29.41,NW,325,11.0,13.0,28,0.00,,---,0.00,VWS V14.01,2013-01-12 06:56:00,
2013-01-11 23:01:00,37.5,7.4,29.41,WNW,301,7.0,14.0,28,0.00,,---,0.00,VWS V14.01,2013-01-12 07:01:00,
2013-01-11 23:11:00,36.9,7.6,29.41,NW,325,10.0,12.0,29,0.00,,---,0.00,VWS V14.01,2013-01-12 07:11:00,
2013-01-11 23:16:00,36.6,7.4,29.41,NW,326,10.0,14.0,29,0.00,,---,0.00,VWS V14.01,2013-01-12 07:16:00,
2013-01-11 23:21:00,36.5,8.0,29.41,NW,313,7.0,16.0,30,0.00,,---,0.00,VWS V14.01,2013-01-12 07:21:00,
2013-01-11 23:31:00,36.2,9.2,29.41,NW,325,8.0,17.0,32,0.00,,---,0.00,VWS V14.01,2013-01-12 07:31:00,
2013-01-11 23:36:00,36.3,9.3,29.41,WNW,294,11.0,15.0,32,0.00,,---,0.00,VWS V14.01,2013-01-12 07:36:00,
2013-01-11 23:41:00,36.3,9.3,29.41,NNW,329,10.0,13.0,32,0.00,,---,0.00,VWS V14.01,2013-01-12 07:41:00,
2013-01-11 23:46:00,36.2,9.2,29.41,WNW,288,14.0,16.0,32,0.00,,---,0.00,VWS V14.01,2013-01-12 07:46:00,
2013-01-11 23:56:00,35.5,9.9,29.41,NW,316,7.0,12.0,34,0.00,,---,0.00,VWS V14.01,2013-01-12 07:56:00,